Location: Albuquerque Trailhead
(34.7934°N, 106.3736°W)
Time: 00:17:07
(UTC+00:00)

Terra - Pass Details

Date: 20 June 2021
Orbit: 701 x 703 km, 98.2° (Epoch: 27 July)

Event Time Altitude Azimuth Distance (km) Brightness Sun altitude
Exits shadow 05:51:04 32° 273° (W) 1,205 3.1 -29.0°
Drops below altitude 10° 05:54:56 10° 326° (NW) 2,175 5.2 -29.3°
Sets 05:57:25 0° 336° (NNW) 3,097 6.4 -29.5°
